Location: Coleto Creek Park and Reservoir
(28.7196°N, 97.1740°W)
Time: 18:28:34
(UTC-05:00)

Hubble Space Telescope - Visible Passes

Search period start: 31 July 2015 00:00
Search period end: 10 August 2015 00:00
Orbit: 541 x 545 km, 28.5° (Epoch: 31 July)

Date Brightness Start Highest point End Pass type
(mag) Time Alt. Az. Time Alt. Az. Time Alt. Az.
31 Jul 3.4 04:48:39 10° SE 04:48:39 10° SE 04:48:39 10° SE visible
31 Jul 2.7 21:48:20 10° SSW 21:49:46 16° S 21:49:46 16° S visible
01 Aug 1.9 21:39:03 10° SW 21:42:14 26° SSE 21:42:14 26° SSE visible
02 Aug 1.5 21:29:53 10° SW 21:33:37 33° SSE 21:34:32 30° SE visible
03 Aug 1.2 21:20:49 10° SW 21:24:43 41° SSE 21:26:38 25° ESE visible
03 Aug 3.6 23:01:45 10° W 23:02:06 12° W 23:02:06 12° W visible
04 Aug 1.0 21:11:48 10° WSW 21:15:49 50° SSE 21:18:35 19° E visible
04 Aug 3.2 22:52:54 10° W 22:54:02 18° W 22:54:02 18° W visible
05 Aug 0.9 21:02:51 10° WSW 21:06:56 60° SSE 21:10:22 14° E visible
05 Aug 2.8 22:44:03 10° W 22:45:50 24° W 22:45:50 24° W visible
06 Aug 0.8 20:53:56 10° WSW 20:58:04 69° S 21:02:04 11° E visible
06 Aug 2.3 22:35:13 10° W 22:37:31 32° W 22:37:31 32° W visible
07 Aug 0.8 20:45:04 10° WSW 20:49:12 77° S 20:53:21 10° E visible
07 Aug 1.9 22:26:22 10° W 22:29:06 40° W 22:29:06 40° W visible
08 Aug 0.8 20:36:11 10° W 20:40:20 84° S 20:44:29 10° E visible
08 Aug 1.5 22:17:30 10° W 22:20:38 49° W 22:20:38 49° W visible
09 Aug 1.1 22:08:40 10° W 22:12:08 57° WSW 22:12:08 57° WSW visible
